Temperature
34 34 33 34 34 34 34 33 33 34 35 34 33 32 31 31 31 30 29 28 27 26 25 24 23 22 21 21 20 20 20 19 19 19 19 19 19 19 19 19 19 19 19 18
34 33 34 35 35 34 34 33 34 35 35 34 33 32 32 31 31 30 29 28 27 26 25 24 23 22 21 21 20 20 20 19 19 19 19 19 19 19 19 19 19 19 19 19
33 34 35 35 34 34 34 34 34 34 34 34 32 31 31 31 31 30 30 29 28 26 25 24 23 22 22 21 20 20 20 19 19 19 19 19 19 19 19 19 19 19 19 19
34 35 35 34 34 34 33 35 34 34 33 32 32 30 31 31 31 31 30 29 28 27 26 24 23 23 22 21 20 20 20 20 20 19 19 19 19 19 19 19 19 19 19 19
33 34 34 33 34 34 34 35 34 34 33 33 33 31 31 32 30 31 30 29 28 27 26 25 24 23 22 22 21 20 20 20 20 19 19 19 19 19 19 19 19 19 19 19
34 35 35 34 35 35 35 34 34 34 33 31 32 31 30 31 31 31 30 29 28 27 26 25 24 23 23 22 21 21 20 20 20 20 19 19 19 19 19 19 19 19 19 19
33 34 35 35 34 34 34 33 31 31 31 31 33 32 30 31 32 31 31 29 28 27 26 25 24 23 23 22 22 21 21 20 20 20 19 19 19 19 19 19 19 19 19 19
32 32 34 34 34 33 33 33 31 30 30 31 32 31 31 32 31 31 31 30 28 27 26 25 24 23 23 22 22 21 21 20 20 19 19 19 19 19 19 19 19 19 19 19
32 32 34 35 35 34 33 33 34 32 31 30 30 31 31 32 31 31 30 30 29 28 27 25 24 23 22 22 22 21 21 20 20 19 19 19 19 19 19 19 19 19 19 19
33 32 33 34 34 34 34 33 33 31 29 29 30 30 30 30 30 30 30 29 28 27 26 25 24 23 23 22 21 21 21 20 20 19 19 19 19 19 19 19 19 19 19 19
33 32 32 33 33 33 33 33 32 32 31 30 29 30 31 30 30 30 30 29 28 27 26 25 24 23 23 22 21 21 20 20 20 19 19 19 19 19 19 19 19 19 19 19
32 32 31 32 34 34 33 33 32 31 30 30 30 30 32 30 30 30 29 28 27 27 26 25 24 23 23 22 21 21 20 20 19 19 19 19 19 19 18 18 18 18 18 18
31 30 29 30 32 32 32 32 32 32 31 30 30 30 31 30 30 29 28 27 27 26 26 25 24 23 22 22 21 21 20 20 19 19 19 19 18 18 18 18 18 18 18 18
30 30 30 29 30 31 31 32 32 31 30 30 30 30 30 30 29 28 27 27 27 26 25 24 23 23 22 21 21 20 20 20 19 19 19 18 18 18 18 18 18 18 18 18
30 29 30 30 31 32 31 31 31 31 31 30 30 30 29 29 28 27 27 27 26 25 25 24 23 22 21 21 20 20 20 19 19 19 18 18 18 18 18 18 18 18 18 18
30 29 29 29 31 31 31 31 31 31 31 30 30 29 29 28 27 27 26 26 25 25 24 23 23 22 21 20 20 19 19 19 19 19 18 18 18 18 18 17 17 17 17 17
29 28 27 28 30 30 29 30 30 30 30 30 29 29 28 27 27 26 25 25 25 24 23 23 22 21 20 20 20 19 19 19 18 18 18 18 18 17 17 17 17 17 17 17
27 27 27 27 28 27 29 31 30 30 30 30 29 28 28 27 26 25 25 24 24 23 23 22 22 21 20 20 19 19 18 18 18 18 18 18 18 17 17 17 17 17 17 17
28 26 26 27 27 27 28 29 29 28 28 28 27 27 26 25 25 24 23 23 23 22 22 22 21 21 20 19 19 18 18 18 17 17 17 17 17 17 17 17 17 17 17 17
28 27 26 26 25 25 27 29 29 28 27 27 26 25 25 25 24 23 22 22 21 21 21 21 20 20 19 19 18 18 17 17 17 17 17 17 17 17 17 17 17 16 16 16
26 25 25 25 25 26 27 28 28 26 24 25 25 24 24 23 23 21 21 21 20 20 20 20 20 19 18 18 18 17 17 17 17 16 16 16 16 16 16 16 16 16 16 16
25 25 25 25 24 24 26 26 25 23 23 23 23 22 22 21 21 20 20 20 20 19 19 19 19 18 18 17 17 17 16 16 16 16 16 16 16 16 16 16 16 16 16 15
25 25 24 24 24 24 24 24 23 23 22 22 21 21 21 20 20 20 19 19 19 18 18 18 18 17 17 17 16 16 16 16 16 16 15 15 15 16 16 16 15 15 15 15
24 25 24 23 24 24 23 23 22 22 21 21 20 20 19 19 19 18 18 18 18 17 17 17 17 16 16 16 16 16 16 15 15 15 15 15 15 15 15 15 15 15 15 15
23 23 23 23 23 23 22 22 21 21 20 20 20 19 19 18 18 18 18 17 17 17 16 16 16 16 15 15 15 15 15 15 15 15 15 15 15 15 15 15 15 15 15 14
23 22 22 22 22 21 21 20 20 20 20 20 19 18 18 18 17 17 17 17 16 16 16 16 15 15 15 15 15 15 15 15 15 14 14 14 14 14 14 14 14 14 14 14
Wind_Speed
11 10 9 7 4 5 6 7 5 2 2 1 3 4 7 8 8 10 11 11 11 12 12 12 12 12 12 10 8 7 7 6 5 4 4 3 3 3 3 3 5 5 4 4
11 10 9 8 5 6 8 10 6 3 2 1 2 3 5 7 8 9 10 11 11 12 12 12 12 12 12 11 9 8 7 7 6 4 4 3 3 3 3 2 4 5 4 4
12 7 7 8 8 9 10 8 7 6 6 4 2 3 6 7 8 9 9 10 11 12 13 13 12 12 12 12 11 9 8 7 7 5 4 3 3 3 3 3 3 4 5 5
11 9 9 9 9 10 10 7 8 9 9 7 6 4 6 8 8 9 9 9 10 10 12 14 13 12 12 12 11 9 9 8 7 6 6 6 5 4 4 3 3 4 5 5
10 10 11 11 9 10 11 10 10 13 12 11 8 5 3 6 8 9 9 9 9 9 10 13 14 13 11 11 11 10 9 8 8 7 6 5 5 4 4 4 4 4 4 4
13 10 11 11 10 10 10 12 13 13 12 11 8 6 4 4 6 8 9 9 9 10 10 10 12 11 10 10 10 10 10 9 8 8 7 5 5 4 4 4 4 4 3 4
14 12 11 10 11 9 9 10 8 8 8 7 6 6 3 3 3 6 9 9 9 9 10 9 9 10 9 9 9 9 9 9 9 9 8 7 6 5 5 4 4 5 4 4
12 10 9 8 9 9 10 11 9 9 9 8 7 4 4 6 5 5 7 9 10 10 9 9 9 8 8 8 8 8 9 8 9 9 8 7 7 6 5 5 4 4 4 3
8 8 7 8 9 11 11 10 12 11 12 11 6 3 2 6 6 5 7 7 8 8 8 8 8 8 7 6 6 7 7 8 8 8 8 7 7 6 5 4 5 4 4 4
10 9 9 8 9 10 11 11 8 9 8 10 7 6 3 5 5 3 5 6 6 6 7 7 7 7 7 7 6 5 4 6 6 6 6 7 6 6 5 5 4 4 4 4
12 11 11 9 10 9 9 10 9 8 9 10 8 3 4 5 5 4 3 6 6 6 5 6 6 6 7 6 5 5 4 4 4 4 5 4 5 6 6 5 5 5 4 4
8 10 11 12 10 9 11 11 10 9 9 11 11 4 4 5 3 3 3 6 6 6 4 4 5 5 6 6 6 5 5 4 3 2 3 4 4 5 6 6 5 5 5 5
5 8 11 11 9 8 10 10 11 11 11 11 12 5 4 3 3 4 5 6 5 5 5 5 5 4 4 4 4 4 4 4 4 3 3 3 3 4 5 5 5 4 5 5
6 11 12 13 10 9 11 13 12 12 11 12 11 7 3 0 1 3 4 3 4 5 4 4 4 3 2 2 2 2 3 3 3 3 3 3 3 3 4 4 4 4 5 5
8 13 14 16 15 14 14 14 13 13 12 12 11 7 4 0 2 2 3 2 3 4 3 3 4 3 2 2 2 1 1 2 2 3 3 3 3 2 3 4 4 5 5 7
8 10 13 16 17 16 15 14 13 12 10 11 11 6 4 2 1 2 2 2 3 3 2 2 3 3 2 2 1 1 0 0 1 2 2 2 3 3 3 3 3 4 4 4
8 9 11 14 14 15 15 11 9 8 8 9 10 6 3 3 3 2 2 2 2 2 3 2 2 3 2 2 2 2 1 1 1 1 2 2 3 3 3 4 3 3 4 4
9 8 8 12 13 15 9 5 7 9 8 7 6 4 4 3 3 2 2 2 1 0 1 1 2 2 3 3 2 1 1 1 1 1 2 2 2 3 3 3 3 3 3 3
8 6 8 10 14 13 8 6 7 8 7 4 4 5 4 4 3 2 4 5 3 2 2 1 1 1 2 2 2 1 1 1 1 2 2 2 2 2 2 2 3 3 3 3
10 8 10 11 12 12 6 4 5 7 6 3 5 4 4 5 4 3 6 6 4 3 2 2 1 1 2 2 1 0 1 1 1 2 2 2 2 2 3 3 3 3 3 3
10 11 13 14 13 8 5 7 6 7 4 7 6 5 5 5 5 4 5 5 4 4 3 2 2 1 2 1 1 0 1 2 2 2 2 2 2 3 3 2 2 2 2 3
10 9 10 11 12 7 5 4 3 3 5 7 7 7 6 5 5 5 5 4 5 4 3 2 2 2 2 2 1 1 1 2 2 2 2 2 2 2 2 1 2 2 3 3
7 6 5 5 4 4 6 5 5 5 5 6 6 6 6 6 6 5 5 4 4 4 4 3 2 2 3 3 1 0 1 1 1 1 2 1 1 1 1 1 1 1 2 2
4 4 5 4 2 2 3 5 6 6 5 5 5 5 5 4 4 5 5 4 5 4 2 3 3 3 3 3 2 1 1 1 1 2 1 1 1 0 1 1 1 1 1 2
6 5 6 7 3 2 3 4 5 4 4 4 5 5 5 5 5 5 4 4 4 4 3 3 2 2 2 2 2 2 1 1 2 2 2 2 2 1 1 0 1 1 0 1
7 5 5 4 4 4 4 5 5 4 4 4 4 4 4 3 4 4 3 3 3 3 2 2 2 2 2 2 2 2 2 1 2 2 2 2 1 1 1 2 1 4 3 3
Wind_Direction
242 245 256 267 284 301 300 294 287 262 174 181 116 138 149 158 160 156 157 160 164 166 163 160 160 156 153 154 154 158 163 164 174 174 180 181 182 175 174 175 164 164 183 192
246 243 257 280 294 282 285 287 291 318 334 245 159 158 162 171 169 163 161 163 164 164 160 159 163 164 163 161 163 164 167 170 182 182 183 186 180 184 186 172 158 171 185 199
244 255 258 265 267 270 274 286 306 308 296 285 249 234 174 178 163 159 164 165 166 168 166 165 169 170 168 169 173 176 175 177 184 182 183 191 174 188 186 184 175 181 193 206
250 256 259 265 269 280 283 300 302 290 282 276 262 256 188 177 171 169 163 161 163 168 172 169 173 175 176 175 176 173 171 175 179 185 191 192 188 192 197 186 189 187 194 205
246 248 255 257 263 275 288 298 288 282 274 271 262 274 213 180 173 172 163 162 161 167 169 171 174 176 178 176 175 175 170 176 180 190 197 199 202 200 194 188 195 193 199 207
255 249 253 260 260 260 274 278 272 264 266 262 258 259 237 193 178 162 155 156 160 162 163 164 167 167 175 173 172 172 170 177 182 190 197 202 209 214 210 204 197 201 209 211
241 241 243 252 257 251 264 274 277 271 259 256 263 253 207 148 143 147 147 149 155 154 156 156 162 167 171 173 174 170 165 176 185 190 198 201 209 216 220 221 214 213 220 216
242 231 228 237 247 263 260 263 269 280 288 291 281 253 165 148 141 134 136 143 145 151 152 153 161 165 171 176 177 173 169 177 187 191 198 203 207 216 223 226 227 220 222 224
263 250 235 237 247 253 258 264 278 278 280 284 282 282 178 145 131 137 133 131 137 146 143 150 154 155 163 170 171 176 169 178 189 194 195 202 206 214 221 222 220 233 224 225
267 273 253 238 241 237 253 270 279 279 284 283 269 258 210 150 149 151 138 124 127 130 137 153 155 158 166 168 159 150 155 179 187 192 204 205 204 211 223 236 231 231 239 235
262 263 259 245 241 252 251 256 263 276 280 285 283 269 140 144 159 156 129 122 123 120 126 134 148 154 158 154 153 163 160 161 180 198 207 215 205 208 217 224 234 235 241 243
254 263 264 261 248 251 254 254 262 271 275 281 285 280 139 140 162 137 130 109 107 116 119 120 128 135 148 155 163 172 174 179 182 188 199 209 209 204 215 224 229 233 231 236
284 265 262 255 241 240 255 255 261 270 273 273 277 269 155 136 126 114 101 113 116 114 119 126 125 128 140 149 162 178 186 186 186 190 205 208 218 214 220 229 233 233 234 238
263 259 264 266 271 263 257 262 266 267 271 276 278 274 287 269 62 112 116 134 131 124 114 117 119 116 115 125 140 158 182 186 184 188 202 214 226 234 237 238 237 236 236 237
252 259 266 273 274 272 269 265 266 266 270 274 281 277 276 309 102 118 134 154 138 128 123 110 115 120 116 116 125 127 156 159 178 189 207 218 226 237 245 244 242 241 240 242
241 265 274 272 272 269 267 265 263 264 272 279 287 289 319 354 51 98 131 171 148 137 140 144 129 136 141 142 141 141 152 131 166 196 214 213 222 228 241 246 245 246 246 249
258 260 269 269 273 274 262 262 265 269 277 279 281 293 316 345 8 4 345 252 163 173 178 190 157 145 161 178 178 176 175 223 231 221 224 217 220 226 234 246 244 249 251 245
249 263 263 267 270 263 266 277 277 277 284 304 317 337 341 343 352 348 322 326 84 287 138 152 173 167 175 183 189 183 190 207 238 256 263 246 241 243 240 237 238 243 253 253
244 246 257 263 262 256 258 283 287 284 282 331 347 344 352 349 338 346 16 2 1 34 44 20 227 195 159 161 161 183 206 204 245 266 284 282 268 262 252 246 249 243 242 246
240 227 244 256 265 263 265 298 303 285 263 4 351 347 348 330 311 338 355 6 354 1 60 36 354 70 94 81 97 188 257 240 272 289 297 299 289 275 267 260 254 244 234 234
241 235 236 252 258 259 308 320 303 275 316 353 351 351 345 343 348 343 0 14 354 355 28 48 19 56 75 56 87 48 333 300 300 306 305 304 291 273 262 259 249 234 232 231
249 245 239 247 253 255 349 341 330 347 5 357 2 360 358 3 5 353 4 11 359 359 8 20 36 50 61 56 59 33 328 309 336 322 304 300 297 282 281 264 242 230 228 224
248 258 260 268 269 27 30 34 35 32 24 10 2 2 7 6 2 0 6 4 8 25 15 15 36 56 63 56 59 198 289 335 329 296 289 292 303 326 332 263 242 236 229 232
266 305 282 274 236 30 20 19 30 29 22 11 360 2 12 11 358 4 12 9 15 24 23 24 28 46 56 47 31 7 359 345 300 286 275 268 259 247 20 2 314 282 286 269
302 283 275 278 304 346 9 10 10 22 25 11 8 9 12 13 7 9 15 23 14 4 13 21 36 36 29 33 22 360 342 301 278 274 260 244 235 218 151 117 358 330 22 214
282 288 283 298 342 328 329 346 344 357 6 3 9 11 6 2 359 6 7 22 13 348 352 13 38 44 29 21 17 6 344 317 284 273 281 268 242 213 184 160 95 41 54 77
Height
1480 1481 1482 1476 1473 1474 1474 1478 1479 1474 1467 1471 1477 1481 1482 1485 1488 1491 1496 1500 1504 1507 1511 1514 1517 1519 1521 1522 1524 1526 1528 1530 1531 1533 1534 1535 1537 1538 1539 1541 1541 1542 1542 1543
1478 1480 1474 1470 1470 1473 1474 1478 1475 1470 1465 1470 1477 1480 1479 1483 1485 1489 1493 1497 1501 1505 1509 1512 1515 1518 1520 1521 1523 1525 1526 1528 1530 1531 1533 1535 1536 1537 1539 1540 1540 1541 1541 1542
1479 1475 1471 1471 1474 1476 1475 1476 1475 1475 1470 1470 1478 1485 1482 1480 1483 1487 1491 1494 1498 1502 1506 1510 1513 1516 1518 1520 1521 1523 1525 1527 1528 1530 1532 1534 1535 1537 1538 1538 1539 1539 1540 1541
1472 1470 1471 1473 1474 1475 1479 1469 1470 1472 1477 1481 1478 1498 1485 1479 1481 1484 1488 1492 1496 1500 1503 1507 1510 1514 1516 1518 1520 1522 1523 1525 1527 1529 1530 1532 1533 1534 1536 1537 1538 1538 1539 1539
1473 1470 1472 1474 1473 1472 1473 1467 1469 1471 1474 1479 1477 1490 1489 1476 1482 1482 1485 1489 1493 1497 1500 1504 1507 1511 1514 1516 1518 1520 1521 1523 1525 1527 1529 1530 1532 1533 1534 1535 1536 1537 1537 1538
1468 1467 1467 1468 1467 1467 1467 1469 1468 1468 1472 1490 1480 1488 1493 1478 1477 1478 1481 1486 1490 1494 1498 1501 1505 1508 1512 1514 1516 1518 1519 1521 1523 1525 1526 1528 1530 1531 1533 1533 1534 1535 1536 1536
1472 1467 1464 1465 1468 1466 1468 1479 1492 1495 1494 1492 1472 1479 1485 1471 1470 1474 1479 1484 1488 1492 1496 1500 1503 1507 1509 1512 1514 1516 1517 1518 1520 1522 1524 1526 1527 1529 1530 1531 1532 1533 1534 1534
1478 1477 1465 1464 1468 1472 1471 1476 1495 1507 1504 1490 1475 1481 1475 1467 1470 1473 1477 1481 1486 1490 1494 1498 1501 1505 1507 1510 1512 1514 1515 1516 1518 1520 1521 1523 1525 1526 1528 1529 1530 1531 1531 1532
1474 1475 1460 1461 1462 1466 1472 1473 1468 1481 1487 1493 1488 1479 1471 1467 1470 1474 1476 1480 1484 1488 1492 1496 1499 1502 1505 1507 1509 1511 1512 1514 1516 1518 1519 1521 1522 1524 1525 1526 1527 1528 1529 1530
1466 1476 1463 1459 1461 1462 1465 1467 1473 1483 1501 1507 1495 1488 1483 1475 1474 1475 1476 1480 1483 1487 1491 1494 1497 1500 1503 1505 1507 1509 1510 1512 1513 1515 1517 1518 1519 1520 1521 1523 1524 1525 1526 1527
1464 1474 1469 1463 1467 1469 1468 1470 1473 1477 1481 1496 1502 1492 1468 1470 1472 1474 1476 1479 1484 1487 1490 1493 1495 1497 1500 1503 1505 1507 1508 1510 1511 1512 1513 1515 1516 1517 1518 1519 1520 1521 1522 1524
1465 1470 1475 1467 1458 1458 1462 1467 1472 1485 1488 1483 1488 1486 1463 1466 1470 1473 1477 1480 1484 1487 1490 1493 1495 1497 1499 1501 1503 1504 1506 1507 1508 1510 1511 1512 1513 1514 1515 1515 1516 1518 1518 1519
1470 1476 1485 1480 1471 1464 1465 1464 1465 1469 1476 1482 1488 1485 1464 1467 1471 1475 1478 1482 1485 1487 1490 1492 1494 1496 1498 1499 1501 1502 1503 1504 1506 1507 1508 1509 1509 1510 1511 1512 1513 1514 1515 1516
1473 1475 1481 1488 1478 1468 1469 1466 1464 1469 1479 1481 1479 1477 1470 1469 1472 1475 1479 1482 1485 1487 1489 1491 1493 1496 1497 1498 1499 1500 1501 1502 1503 1504 1505 1506 1506 1507 1508 1509 1509 1510 1511 1511
1472 1476 1474 1469 1464 1462 1464 1464 1464 1468 1470 1476 1473 1472 1471 1470 1473 1477 1479 1482 1483 1486 1488 1490 1493 1494 1496 1497 1498 1499 1499 1501 1501 1502 1502 1502 1503 1504 1504 1505 1506 1506 1507 1508
1470 1476 1475 1474 1465 1462 1464 1461 1462 1464 1465 1467 1468 1471 1468 1471 1474 1477 1479 1480 1482 1485 1488 1490 1492 1493 1495 1496 1497 1497 1498 1499 1499 1499 1499 1499 1500 1500 1500 1501 1502 1502 1503 1503
1472 1477 1482 1480 1468 1466 1472 1463 1462 1464 1463 1466 1473 1472 1470 1473 1475 1477 1479 1481 1481 1483 1486 1489 1490 1491 1493 1494 1495 1495 1496 1496 1496 1496 1496 1496 1497 1497 1497 1497 1498 1498 1498 1499
1475 1479 1480 1480 1479 1491 1470 1458 1460 1463 1464 1464 1466 1470 1472 1475 1476 1478 1480 1481 1480 1483 1484 1487 1488 1490 1491 1492 1493 1493 1494 1494 1494 1494 1494 1494 1494 1493 1493 1493 1494 1494 1495 1495
1470 1477 1482 1482 1483 1478 1467 1462 1463 1467 1469 1468 1471 1473 1475 1475 1476 1479 1480 1481 1482 1483 1484 1486 1487 1488 1489 1490 1490 1491 1491 1491 1492 1491 1491 1491 1491 1491 1490 1490 1490 1491 1491 1492
1468 1473 1481 1481 1487 1488 1474 1464 1464 1468 1474 1472 1473 1475 1476 1476 1478 1482 1481 1481 1482 1484 1484 1486 1486 1487 1487 1488 1488 1489 1489 1489 1489 1489 1489 1488 1488 1488 1488 1487 1488 1488 1488 1488
1474 1475 1479 1481 1483 1476 1469 1466 1467 1479 1483 1476 1475 1476 1478 1479 1481 1483 1481 1481 1483 1484 1484 1484 1485 1486 1486 1486 1486 1486 1486 1486 1486 1487 1486 1486 1485 1485 1485 1485 1485 1485 1485 1485
1475 1476 1478 1479 1484 1484 1471 1470 1476 1480 1479 1478 1478 1479 1479 1480 1480 1481 1481 1482 1482 1483 1483 1483 1484 1484 1484 1484 1484 1484 1484 1484 1484 1485 1484 1484 1483 1483 1483 1483 1483 1483 1482 1482
1469 1472 1474 1477 1481 1477 1475 1476 1478 1479 1480 1481 1481 1481 1481 1480 1480 1481 1482 1482 1482 1481 1482 1482 1482 1482 1482 1482 1483 1483 1483 1483 1483 1482 1482 1481 1481 1480 1480 1480 1480 1481 1480 1480
1468 1470 1472 1475 1475 1476 1478 1479 1480 1481 1482 1482 1483 1482 1482 1481 1482 1482 1482 1482 1482 1482 1482 1482 1482 1481 1481 1481 1481 1482 1481 1481 1481 1481 1480 1479 1479 1478 1478 1479 1479 1479 1479 1479
1473 1474 1474 1476 1476 1477 1479 1481 1482 1482 1483 1483 1483 1483 1483 1482 1482 1482 1482 1482 1482 1482 1481 1481 1481 1481 1480 1480 1479 1479 1480 1479 1479 1478 1477 1477 1477 1477 1476 1477 1477 1477 1477 1477
1474 1475 1476 1478 1478 1480 1482 1482 1482 1483 1483 1483 1483 1483 1484 1483 1482 1482 1483 1483 1483 1482 1481 1481 1480 1480 1480 1479 1478 1478 1478 1477 1477 1476 1476 1476 1476 1476 1475 1475 1475 1476 1476 1476